| time (UTC) | temp C | wind direction | speed KPH | gust KPH | rain 1hr cm | rain 24hr cm | rain mn cm | humidity % | barometer mb |
| 20260504231746 | 16 | 59 | 1.6 | 1.6 | 0.00 | 0.00 | 0.00 | 54 | 999.9 |
| 20260504231242 | 16 | 59 | 0.0 | 0.0 | 0.00 | 0.00 | 0.00 | 54 | 999.6 |
| 20260504230738 | 16 | 59 | 0.0 | 1.6 | 0.00 | 0.00 | 0.00 | 53 | 999.7 |
| 20260504230237 | 17 | 59 | 1.6 | 1.6 | 0.00 | 0.00 | 0.00 | 51 | 999.6 |
| 20260504225735 | 17 | 60 | 1.6 | 1.6 | 0.00 | 0.00 | 0.00 | 54 | 999.7 |
| 20260504225231 | 17 | 59 | 0.0 | 0.0 | 0.00 | 0.00 | 0.00 | 50 | 999.7 |
| 20260504224729 | 17 | 59 | 0.0 | 1.6 | 0.00 | 0.00 | 0.00 | 50 | 999.6 |
| 20260504224226 | 17 | 59 | 0.0 | 0.0 | 0.00 | 0.00 | 0.00 | 49 | 999.5 |
| 20260504223722 | 17 | 59 | 1.6 | 1.6 | 0.00 | 0.00 | 0.00 | 51 | 999.6 |
| 20260504223218 | 18 | 59 | 0.0 | 1.6 | 0.00 | 0.00 | 0.00 | 50 | 999.3 |
| 20260504222715 | 19 | 357 | 1.6 | 3.2 | 0.00 | 0.00 | 0.00 | 44 | 999.7 |
| 20260504222212 | 19 | 275 | 3.2 | 3.2 | 0.00 | 0.00 | 0.00 | 44 | 999.5 |
| 20260504221709 | 20 | 286 | 3.2 | 4.8 | 0.00 | 0.00 | 0.00 | 42 | 999.6 |
| 20260504221206 | 19 | 18 | 1.6 | 1.6 | 0.00 | 0.00 | 0.00 | 43 | 999.6 |
| 20260504220702 | 20 | 358 | 3.2 | 3.2 | 0.00 | 0.00 | 0.00 | 43 | 999.5 |
| 20260504220200 | 20 | 17 | 1.6 | 1.6 | 0.00 | 0.00 | 0.00 | 42 | 999.6 |
| 20260504215656 | 20 | 300 | 3.2 | 4.8 | 0.00 | 0.00 | 0.00 | 43 | 999.6 |
| 20260504215154 | 19 | 301 | 4.8 | 4.8 | 0.00 | 0.00 | 0.00 | 43 | 999.5 |
| 20260504214649 | 19 | 298 | 3.2 | 3.2 | 0.00 | 0.00 | 0.00 | 43 | 999.4 |
| 20260504214146 | 19 | 307 | 4.8 | 4.8 | 0.00 | 0.00 | 0.00 | 43 | 999.6 |
| 20260504213643 | 19 | 296 | 6.4 | 6.4 | 0.00 | 0.00 | 0.00 | 44 | 999.6 |
| 20260504213139 | 18 | 291 | 6.4 | 9.7 | 0.00 | 0.00 | 0.00 | 44 | 999.7 |
| 20260504212636 | 19 | 325 | 4.8 | 4.8 | 0.00 | 0.00 | 0.00 | 45 | 999.5 |
| 20260504212133 | 19 | 288 | 9.7 | 11.3 | 0.00 | 0.00 | 0.00 | 45 | 999.5 |
| 20260504211630 | 18 | 314 | 4.8 | 4.8 | 0.00 | 0.00 | 0.00 | 46 | 999.5 |
| 20260504211126 | 18 | 347 | 3.2 | 3.2 | 0.00 | 0.00 | 0.00 | 46 | 999.8 |
| 20260504210624 | 18 | 312 | 6.4 | 9.7 | 0.00 | 0.00 | 0.00 | 46 | 999.7 |
| 20260504210120 | 18 | 346 | 3.2 | 3.2 | 0.00 | 0.00 | 0.00 | 47 | 999.8 |
| 20260504205618 | 17 | 218 | 4.8 | 6.4 | 0.00 | 0.00 | 0.00 | 49 | 999.7 |
| 20260504205116 | 17 | 52 | 1.6 | 1.6 | 0.00 | 0.00 | 0.00 | 50 | 999.6 |
| 20260504204614 | 17 | 271 | 4.8 | 4.8 | 0.00 | 0.00 | 0.00 | 48 | 999.5 |
| 20260504204112 | 17 | 318 | 3.2 | 4.8 | 0.00 | 0.00 | 0.00 | 48 | 999.5 |
| 20260504203611 | 17 | 276 | 8.0 | 9.7 | 0.00 | 0.00 | 0.00 | 48 | 999.7 |
| 20260504203108 | 17 | 285 | 9.7 | 12.9 | 0.00 | 0.00 | 0.00 | 49 | 999.8 |
| 20260504202603 | 18 | 295 | 4.8 | 6.4 | 0.00 | 0.00 | 0.00 | 49 | 999.7 |
| 20260504202100 | 18 | 298 | 6.4 | 6.4 | 0.00 | 0.00 | 0.00 | 46 | 999.8 |
| 20260504201557 | 18 | 346 | 4.8 | 6.4 | 0.00 | 0.00 | 0.00 | 49 | 999.8 |
| 20260504201055 | 17 | 288 | 4.8 | 4.8 | 0.00 | 0.00 | 0.00 | 50 | 999.7 |
| 20260504200550 | 18 | 285 | 9.7 | 11.3 | 0.00 | 0.00 | 0.00 | 50 | 999.9 |
| 20260504200048 | 18 | 281 | 6.4 | 6.4 | 0.00 | 0.00 | 0.00 | 48 | 999.9 |
| 20260504195544 | 18 | 316 | 12.9 | 14.5 | 0.00 | 0.00 | 0.00 | 48 | 999.8 |
| 20260504195040 | 17 | 303 | 8.0 | 9.7 | 0.00 | 0.00 | 0.00 | 52 | 999.7 |
| 20260504194537 | 17 | 285 | 6.4 | 6.4 | 0.00 | 0.00 | 0.00 | 52 | 999.7 |
| 20260504194032 | 17 | 353 | 4.8 | 6.4 | 0.00 | 0.00 | 0.00 | 54 | 1000.0 |
| 20260504193529 | 16 | 277 | 4.8 | 4.8 | 0.00 | 0.00 | 0.00 | 57 | 1000.1 |
| 20260504193028 | 16 | 289 | 4.8 | 4.8 | 0.00 | 0.00 | 0.00 | 59 | 1000.1 |
| 20260504192526 | 16 | 258 | 3.2 | 3.2 | 0.00 | 0.00 | 0.00 | 59 | 1000.1 |
| 20260504192024 | 15 | 37 | 1.6 | 1.6 | 0.00 | 0.00 | 0.00 | 61 | 1000.2 |
| 20260504191521 | 15 | 294 | 6.4 | 6.4 | 0.00 | 0.00 | 0.00 | 61 | 1000.2 |
| 20260504191017 | 15 | 335 | 3.2 | 3.2 | 0.00 | 0.00 | 0.00 | 63 | 1000.2 |
| 20260504190513 | 16 | 344 | 3.2 | 3.2 | 0.00 | 0.00 | 0.00 | 61 | 1000.2 |
| 20260504190010 | 16 | 323 | 3.2 | 4.8 | 0.00 | 0.00 | 0.00 | 65 | 1000.3 |
| 20260504185507 | 16 | 311 | 4.8 | 6.4 | 0.00 | 0.00 | 0.00 | 61 | 1000.2 |
| 20260504185004 | 15 | 0 | 3.2 | 3.2 | 0.00 | 0.00 | 0.00 | 64 | 1000.3 |
| 20260504184459 | 15 | 0 | 3.2 | 3.2 | 0.00 | 0.00 | 0.00 | 64 | 1000.3 |
| 20260504183954 | 15 | 282 | 3.2 | 4.8 | 0.00 | 0.00 | 0.00 | 67 | 1000.4 |
| 20260504183452 | 14 | 341 | 3.2 | 3.2 | 0.00 | 0.00 | 0.00 | 71 | 1000.5 |
| 20260504182950 | 13 | 10 | 3.2 | 3.2 | 0.00 | 0.00 | 0.00 | 74 | 1000.6 |
| 20260504182446 | 13 | 44 | 1.6 | 3.2 | 0.00 | 0.00 | 0.00 | 74 | 1000.4 |
| 20260504181944 | 13 | 43 | 1.6 | 1.6 | 0.00 | 0.00 | 0.00 | 74 | 1000.4 |
| 20260504181441 | 13 | 358 | 1.6 | 3.2 | 0.00 | 0.00 | 0.00 | 75 | 1000.4 |
| 20260504180939 | 13 | 37 | 0.0 | 1.6 | 0.00 | 0.00 | 0.00 | 73 | 1000.2 |
| 20260504180438 | 13 | 308 | 3.2 | 3.2 | 0.00 | 0.00 | 0.00 | 75 | 1000.4 |
| 20260504175936 | 13 | 58 | 0.0 | 1.6 | 0.00 | 0.00 | 0.00 | 77 | 1000.3 |
| 20260504175432 | 13 | 261 | 3.2 | 4.8 | 0.00 | 0.00 | 0.00 | 77 | 1000.3 |
| 20260504174930 | 12 | 32 | 1.6 | 1.6 | 0.00 | 0.00 | 0.00 | 77 | 1000.5 |
| 20260504174427 | 13 | 85 | 1.6 | 1.6 | 0.00 | 0.00 | 0.00 | 77 | 1000.5 |
| 20260504173925 | 13 | 33 | 1.6 | 1.6 | 0.00 | 0.00 | 0.00 | 77 | 1000.7 |
| 20260504173421 | 13 | 50 | 1.6 | 1.6 | 0.00 | 0.00 | 0.00 | 77 | 1000.5 |
| 20260504172919 | 13 | 343 | 4.8 | 4.8 | 0.00 | 0.00 | 0.00 | 71 | 1000.5 |
| 20260504172415 | 14 | 297 | 8.0 | 9.7 | 0.00 | 0.00 | 0.00 | 64 | 1000.6 |
| 20260504171911 | 15 | 294 | 9.7 | 11.3 | 0.00 | 0.00 | 0.00 | 59 | 1000.1 |
| 20260504171409 | 15 | 288 | 11.3 | 12.9 | 0.00 | 0.00 | 0.00 | 53 | 1000.2 |
| 20260504170905 | 16 | 291 | 3.2 | 11.3 | 0.00 | 0.00 | 0.00 | 51 | 999.9 |
| 20260504170402 | 16 | 301 | 11.3 | 14.5 | 0.00 | 0.00 | 0.00 | 48 | 999.6 |
| 20260504160320 | 16 | 259 | 9.7 | 9.7 | 0.00 | 0.00 | 0.00 | 52 | 999.3 |
| 20260504150745 | 13 | 2 | 3.2 | 3.2 | 0.00 | 0.00 | 0.00 | 60 | 1000.3 |
| 20260504150242 | 13 | 293 | 4.8 | 9.7 | 0.00 | 0.00 | 0.00 | 60 | 1000.5 |
| 20260504141212 | 12 | 296 | 8.0 | 9.7 | 0.00 | 0.00 | 0.00 | 66 | 1001.4 |
| 20260504140708 | 11 | 298 | 3.2 | 3.2 | 0.00 | 0.00 | 0.00 | 66 | 1001.2 |
| 20260504140203 | 11 | 299 | 9.7 | 11.3 | 0.00 | 0.00 | 0.00 | 66 | 1001.3 |
| 20260504130632 | 9 | 77 | 0.0 | 0.0 | 0.00 | 0.00 | 0.00 | 69 | 1002.3 |
| 20260504130129 | 10 | 333 | 3.2 | 3.2 | 0.00 | 0.00 | 0.00 | 66 | 1002.0 |
| 20260504110520 | 0 | 0 | 0.0 | 1.6 | 0.00 | 0.00 | 0.00 | 96 | 1002.5 |
| 20260504100442 | 0 | 6 | 0.0 | 1.6 | 0.00 | 0.00 | 0.00 | 98 | 1002.3 |
| 20260504081835 | -1 | 6 | 1.6 | 1.6 | 0.00 | 0.00 | 0.00 | 99 | 1002.0 |
| 20260504081332 | -1 | 6 | 0.0 | 1.6 | 0.00 | 0.00 | 0.00 | 99 | 1002.0 |
| 20260504080827 | -1 | 6 | 0.0 | 0.0 | 0.00 | 0.00 | 0.00 | 99 | 1002.1 |
| 20260504080325 | -1 | 6 | 0.0 | 0.0 | 0.00 | 0.00 | 0.00 | 99 | 1002.1 |
| 20260504070252 | -1 | 7 | 1.6 | 1.6 | 0.00 | 0.00 | 0.00 | 98 | 1002.1 |
| 20260504060213 | 0 | 8 | 0.0 | 1.6 | 0.00 | 0.00 | 0.00 | 96 | 1002.0 |
| 20260504050640 | 0 | 10 | 0.0 | 0.0 | 0.00 | 0.00 | 0.00 | 94 | 1002.0 |
| 20260504050137 | 0 | 10 | 0.0 | 0.0 | 0.00 | 0.00 | 0.00 | 94 | 1001.7 |
| 20260504045634 | 0 | 10 | 0.0 | 0.0 | 0.00 | 0.00 | 0.00 | 94 | 1001.8 |
| 20260504045134 | 0 | 10 | 0.0 | 0.0 | 0.00 | 0.00 | 0.00 | 93 | 1001.9 |
| 20260504044632 | 0 | 10 | 0.0 | 0.0 | 0.00 | 0.00 | 0.00 | 92 | 1002.0 |
| 20260504044129 | 0 | 10 | 0.0 | 0.0 | 0.00 | 0.00 | 0.00 | 90 | 1002.1 |
| 20260504043626 | 1 | 10 | 1.6 | 1.6 | 0.00 | 0.00 | 0.00 | 89 | 1001.9 |
| 20260504043123 | 1 | 10 | 0.0 | 0.0 | 0.00 | 0.00 | 0.00 | 89 | 1002.0 |
| 20260504042620 | 1 | 10 | 0.0 | 0.0 | 0.00 | 0.00 | 0.00 | 88 | 1001.9 |
| 20260504042117 | 1 | 10 | 0.0 | 0.0 | 0.00 | 0.00 | 0.00 | 85 | 1001.9 |
| 20260504041613 | 1 | 10 | 0.0 | 0.0 | 0.00 | 0.00 | 0.00 | 85 | 1002.0 |
| 20260504041109 | 1 | 10 | 0.0 | 0.0 | 0.00 | 0.00 | 0.00 | 86 | 1002.1 |
| 20260504040607 | 1 | 10 | 0.0 | 0.0 | 0.00 | 0.00 | 0.00 | 88 | 1002.0 |
| 20260504040103 | 1 | 10 | 0.0 | 0.0 | 0.00 | 0.00 | 0.00 | 89 | 1001.8 |
| 20260504035600 | 1 | 10 | 0.0 | 0.0 | 0.00 | 0.00 | 0.00 | 88 | 1001.9 |
| 20260504035056 | 1 | 10 | 0.0 | 0.0 | 0.00 | 0.00 | 0.00 | 88 | 1001.9 |
| 20260504034554 | 1 | 10 | 0.0 | 0.0 | 0.00 | 0.00 | 0.00 | 88 | 1001.8 |
| 20260504034051 | 1 | 10 | 0.0 | 0.0 | 0.00 | 0.00 | 0.00 | 88 | 1001.7 |
| 20260504033549 | 1 | 10 | 1.6 | 1.6 | 0.00 | 0.00 | 0.00 | 88 | 1001.6 |
| 20260504033046 | 1 | 10 | 1.6 | 1.6 | 0.00 | 0.00 | 0.00 | 88 | 1001.6 |
| 20260504032543 | 1 | 10 | 1.6 | 1.6 | 0.00 | 0.00 | 0.00 | 88 | 1001.7 |
| 20260504032040 | 1 | 10 | 0.0 | 1.6 | 0.00 | 0.00 | 0.00 | 87 | 1001.9 |
| 20260504031537 | 2 | 10 | 0.0 | 0.0 | 0.00 | 0.00 | 0.00 | 86 | 1001.6 |
| 20260504031033 | 2 | 10 | 0.0 | 0.0 | 0.00 | 0.00 | 0.00 | 84 | 1001.7 |
| 20260504030531 | 2 | 10 | 0.0 | 0.0 | 0.00 | 0.03 | 0.03 | 84 | 1001.5 |
| 20260504030026 | 2 | 10 | 0.0 | 0.0 | 0.00 | 0.03 | 0.03 | 84 | 1001.6 |
| 20260504025524 | 2 | 10 | 0.0 | 0.0 | 0.00 | 0.03 | 0.03 | 83 | 1001.6 |
| 20260504025020 | 3 | 10 | 1.6 | 1.6 | 0.00 | 0.03 | 0.03 | 81 | 1001.9 |
| 20260504024517 | 3 | 10 | 0.0 | 1.6 | 0.00 | 0.03 | 0.03 | 79 | 1001.8 |
| 20260504024014 | 3 | 10 | 1.6 | 1.6 | 0.00 | 0.03 | 0.03 | 77 | 1001.5 |
| 20260504023511 | 3 | 10 | 1.6 | 1.6 | 0.00 | 0.03 | 0.03 | 75 | 1001.6 |
| 20260504023007 | 4 | 10 | 1.6 | 1.6 | 0.00 | 0.03 | 0.03 | 72 | 1001.6 |
| 20260504022503 | 4 | 10 | 1.6 | 1.6 | 0.00 | 0.03 | 0.03 | 71 | 1001.7 |
| 20260504021959 | 5 | 10 | 1.6 | 1.6 | 0.00 | 0.03 | 0.03 | 71 | 1001.6 |
| 20260504021457 | 5 | 10 | 1.6 | 1.6 | 0.00 | 0.03 | 0.03 | 70 | 1001.6 |
| 20260504020954 | 5 | 10 | 1.6 | 1.6 | 0.00 | 0.03 | 0.03 | 70 | 1001.7 |
| 20260504020450 | 5 | 10 | 1.6 | 1.6 | 0.00 | 0.03 | 0.03 | 69 | 1001.6 |
| 20260504015947 | 5 | 10 | 1.6 | 1.6 | 0.00 | 0.03 | 0.03 | 69 | 1001.5 |
| 20260504015443 | 5 | 10 | 1.6 | 1.6 | 0.00 | 0.03 | 0.03 | 68 | 1001.5 |
| 20260504014939 | 5 | 10 | 1.6 | 1.6 | 0.00 | 0.03 | 0.03 | 68 | 1001.7 |
| 20260504014435 | 5 | 10 | 1.6 | 1.6 | 0.00 | 0.03 | 0.03 | 67 | 1001.5 |
| 20260504013932 | 5 | 12 | 1.6 | 3.2 | 0.00 | 0.03 | 0.03 | 65 | 1001.7 |
| 20260504013431 | 6 | 24 | 0.0 | 1.6 | 0.00 | 0.03 | 0.03 | 63 | 1001.5 |
| 20260504012927 | 6 | 24 | 1.6 | 1.6 | 0.00 | 0.03 | 0.03 | 61 | 1001.4 |
| 20260504012425 | 6 | 24 | 0.0 | 0.0 | 0.00 | 0.03 | 0.03 | 60 | 1001.2 |
| 20260504011922 | 6 | 24 | 0.0 | 1.6 | 0.00 | 0.03 | 0.03 | 59 | 1001.3 |
| 20260504011419 | 6 | 23 | 1.6 | 1.6 | 0.00 | 0.03 | 0.03 | 58 | 1001.1 |
| 20260504010915 | 6 | 11 | 3.2 | 3.2 | 0.00 | 0.03 | 0.03 | 57 | 1001.1 |
| 20260504010411 | 7 | 347 | 3.2 | 3.2 | 0.00 | 0.03 | 0.03 | 56 | 1001.1 |
| 20260504005907 | 7 | 311 | 3.2 | 3.2 | 0.00 | 0.03 | 0.03 | 57 | 1001.3 |
| 20260504005404 | 7 | 39 | 1.6 | 3.2 | 0.00 | 0.03 | 0.03 | 56 | 1000.8 |
| 20260504004903 | 7 | 320 | 3.2 | 3.2 | 0.00 | 0.03 | 0.03 | 55 | 1000.9 |
| 20260504004400 | 7 | 357 | 1.6 | 3.2 | 0.00 | 0.03 | 0.03 | 55 | 1000.8 |
| 20260504003856 | 7 | 317 | 4.8 | 6.4 | 0.00 | 0.03 | 0.03 | 54 | 1000.7 |
| 20260504003352 | 7 | 11 | 3.2 | 3.2 | 0.00 | 0.03 | 0.03 | 54 | 1000.5 |
| 20260504002849 | 7 | 17 | 1.6 | 1.6 | 0.00 | 0.03 | 0.03 | 55 | 1000.4 |
| 20260504002346 | 7 | 39 | 0.0 | 1.6 | 0.00 | 0.03 | 0.03 | 54 | 1000.3 |
| 20260504001843 | 7 | 297 | 4.8 | 4.8 | 0.00 | 0.03 | 0.03 | 53 | 1000.5 |
| 20260504001340 | 7 | 330 | 3.2 | 4.8 | 0.00 | 0.03 | 0.03 | 53 | 1000.3 |
| 20260504000837 | 7 | 26 | 1.6 | 1.6 | 0.00 | 0.03 | 0.03 | 54 | 1000.2 |
| 20260504000335 | 7 | 28 | 1.6 | 1.6 | 0.00 | 0.03 | 0.03 | 54 | 1000.0 |
| 20260503235832 | 8 | 45 | 0.0 | 0.0 | 0.00 | 0.03 | 0.03 | 52 | 999.9 |
| 20260503235330 | 8 | 50 | 1.6 | 3.2 | 0.00 | 0.03 | 0.03 | 52 | 1000.0 |
| 20260503234827 | 8 | 49 | 1.6 | 1.6 | 0.00 | 0.03 | 0.03 | 50 | 999.7 |
| 20260503234325 | 8 | 330 | 1.6 | 3.2 | 0.00 | 0.03 | 0.03 | 50 | 999.7 |
| 20260503233822 | 8 | 36 | 1.6 | 1.6 | 0.00 | 0.03 | 0.03 | 50 | 999.8 |
| 20260503233318 | 8 | 26 | 1.6 | 3.2 | 0.00 | 0.03 | 0.03 | 48 | 999.7 |
| 20260503232815 | 8 | 48 | 1.6 | 3.2 | 0.00 | 0.03 | 0.03 | 52 | 999.5 |
| 20260503232312 | 8 | 42 | 1.6 | 3.2 | 0.00 | 0.03 | 0.03 | 51 | 999.4 |